Location: Bo?a Wola
(50.4192°N, 19.7966°E)
Time: 20:52:09
(UTC+00:00)

Cosmos 1455 Rocket - Pass Details

Date: 23 September 2024
Orbit: 601 x 623 km, 82.5° (Epoch: 13 October)

Event Time Altitude Azimuth Distance (km) Brightness Sun altitude
Exits shadow 00:01:59 16° 12° (NNE) 1,627 5.8 -36.3°
Drops below altitude 10° 00:02:52 10° 11° (NNE) 1,975 6.3 -36.3°
Sets 00:05:06 0° 11° (NNE) 2,889 7.4 -36.1°
